Weather History for KTWF - August, 2014

Change the Weather History Date:

Thursday, August 28, 2014

  Actual Average Record
Temperature  
Mean Temperature 75 °F -  
Max Temperature 90 °F 85 °F 98 °F (2012)
Min Temperature 60 °F 53 °F 43 °F (1987)
Degree Days  
Heating Degree Days 0 1  
Month to date heating degree days 16 6  
Since 1 June heating degree days 74 99  
Since 1 July heating degree days 16 12  
Cooling Degree Days 10 5  
Month to date cooling degree days 195 217  
Year to date cooling degree days 749 603  
Since 1 June cooling degree days 716 581  
Growing Degree Days 26 (Base 50)    
Moisture  
Dew Point 46 °F    
Average Humidity 39    
Maximum Humidity 60    
Minimum Humidity 17    
Precipitation  
Precipitation 0.00 in 0.01 in 0.05 in (1991)
Month to date precipitation 5.55 0.28  
Year to date precipitation 12.23 6.84  
Sea Level Pressure  
Sea Level Pressure 29.94 in    
Wind  
Wind Speed 7 mph (South)    
Max Wind Speed 15 mph    
Max Gust Speed 19 mph    
Visibility 10 miles    
Events      
T = Trace of Precipitation, MM = Missing Value Source: NWS Daily Summary

Daily Weather History Graph

Daily Weather History Graph

Search for Another Location

Airport or City:

Trip Planner

Search our weather history database for the weather conditions in past years. The results will help you decide how hot, cold, wet, or windy it might be!

Date:

Astronomy

Aug. 28, 2014 Rise Set
Actual Time 6:58 AM MDT 8:18 PM MDT
Civil Twilight 6:29 AM MDT 8:47 PM MDT
Nautical Twilight 5:54 AM MDT 9:22 PM MDT
Astronomical Twilight 5:17 AM MDT 9:59 PM MDT
Moon 9:59 AM MDT (8/28) 9:39 PM MDT (8/28)
Length of Visible Light 14h 18m
Length of Day
13h 19m
Waxing Crescent, 9% of the Moon is Illuminated
Aug 28
Waxing Crescent
Sep 2
First Quarter
Sep 8
Full
Sep 15
Last Quarter
Sep 24
New

Hourly Weather History & Observations

Time (MDT) Temp. Dew Point Humidity Pressure Visibility Wind Dir Wind Speed Gust Speed Precip Events Conditions
12:53 AM 66.0 °F 46.9 °F 50% 29.98 in 10.0 mi South 10.4 mph - N/A   Clear
1:53 AM 63.0 °F 48.0 °F 58% 29.98 in 10.0 mi South 11.5 mph - N/A   Clear
2:53 AM 64.0 °F 46.9 °F 54% 29.97 in 10.0 mi South 12.7 mph - N/A   Clear
3:53 AM 63.0 °F 46.9 °F 56% 29.97 in 10.0 mi South 12.7 mph - N/A   Clear
4:53 AM 62.1 °F 46.9 °F 58% 29.97 in 10.0 mi South 11.5 mph - N/A   Clear
5:53 AM 61.0 °F 46.9 °F 60% 29.98 in 10.0 mi South 10.4 mph - N/A   Clear
6:53 AM 62.1 °F 46.0 °F 56% 29.99 in 10.0 mi South 15.0 mph - N/A   Clear
7:53 AM 64.0 °F 46.9 °F 54% 30.01 in 10.0 mi South 11.5 mph - N/A   Clear
8:53 AM 66.9 °F 50.0 °F 54% 30.03 in 10.0 mi Variable 4.6 mph - N/A   Clear
9:53 AM 73.9 °F 53.1 °F 48% 30.03 in 10.0 mi Calm Calm - N/A   Clear
10:53 AM 80.1 °F 46.9 °F 31% 30.01 in 10.0 mi South 6.9 mph - N/A   Clear
11:53 AM 82.9 °F 43.0 °F 24% 30.00 in 10.0 mi Calm Calm - N/A   Clear
12:53 PM 84.9 °F 41.0 °F 21% 29.97 in 10.0 mi SSE 3.5 mph - N/A   Clear
1:53 PM 88.0 °F 41.0 °F 19% 29.94 in 10.0 mi Variable 4.6 mph - N/A   Clear
2:53 PM 89.1 °F 39.0 °F 17% 29.91 in 10.0 mi ESE 3.5 mph - N/A   Clear
3:53 PM 88.0 °F 39.9 °F 18% 29.90 in 10.0 mi NNE 4.6 mph - N/A   Clear
4:53 PM 90.0 °F 43.0 °F 19% 29.88 in 10.0 mi NNE 5.8 mph - N/A   Clear
5:53 PM 88.0 °F 45.0 °F 22% 29.87 in 10.0 mi NW 6.9 mph - N/A   Clear
6:53 PM 86.0 °F 46.9 °F 26% 29.87 in 10.0 mi NW 4.6 mph - N/A   Clear
7:53 PM 80.1 °F 50.0 °F 35% 29.88 in 10.0 mi Calm Calm - N/A   Clear
8:53 PM 73.9 °F 48.0 °F 40% 29.89 in 10.0 mi West 6.9 mph - N/A   Clear
9:53 PM 69.1 °F 46.9 °F 45% 29.89 in 9.0 mi SW 4.6 mph - N/A   Clear
10:53 PM 64.9 °F 48.0 °F 54% 29.88 in 10.0 mi South 9.2 mph - N/A   Clear
11:53 PM 68.0 °F 45.0 °F 43% 29.87 in 10.0 mi South 10.4 mph - N/A   Clear